2019-072F (44708 NORAD) Tracking and Keplerian Element Data

This shows tracking and keplerian element data for the satellite.

Feedback or suggestion? Click here.




ElementValue
Catalog44708
Name2019-072F
Epoch Orbit107
Epoch Day314.18968403
Epoch Year2019
RAAN27.0382
Inclination97.544
Eccentricity0.0035287
Argument of Perigee279.4558
Mean Anonmoly134.8351
Mean Motion15.35484969
Decay Rate0.00607732
L11 44708U 19072F 19314.18968403 .00607732 00000-0 16032-1 0 9997
L22 44708 97.5440 27.0382 0035287 279.4558 134.8351 15.35484969 1078

Live tracking and technical data element details for 2019-072F (NORAD 44708). 2019-072F can be tracked NOW for your location showing map with azimuth and elevation plus other details from your city location.

Track the satellite on the map from your city or location and see movement details for azimuth, elevation, latitude, longitude, range, height, and movement on the map or in text.







IsCatalogInMostPopularTable: catalog: 44708, numindb: 5
Update: records affected: 1



GetName: 44708 2019-072F

Hit Count: updated at: Thu, 14 Nov 2019 06:56:22 GMT